sat.trackr.live / text

‹ back to catalog

STARLINK-11124 [DTC]

NORAD 59952 · 2024-107H

PAYLOAD ACTIVE UNKNOWN

§ Identity

Operator
Country
US
Launch date
2024-06-05
Launch site
AFETR
Launch vehicle
Mass (kg)
RCS (m²)

Purposes: comms

External: N2YO · Heavens-Above · Gunter

§ Orbital elements

Epoch: 2026-09-21T14:06:37.188288Z

Period
91.74 min
Inclination
53.1597°
Eccentricity
0.0001044
Mean motion
15.69708694 rev/d
Perigee alt
359.0 km
Apogee alt
360.4 km
Semi-major
6,737.9 km
B*
1.2416e-5
RAAN
5.5816°
Arg perigee
84.2525°
Mean anomaly
275.8611°
Rev number
13,298

§ Raw data

STARLINK-11124 [DTC]1 59952U 24107H   26264.58793042  .00000916  00000+0  12416-4 0  99952 59952  53.1597   5.5816 0001044  84.2525 275.8611 15.69708694132980

JSON: /api/v1/satellites/59952 · /tle

For live sub-satellite position, see the globe view (requires WebGL).

§ Visibility from observer

Set your observer location to see the next 7 days of passes ≥ 10°. The values pass through the URL so the page stays shareable.

No JS? Fill the form by hand. The geolocation button needs JavaScript.